Weather History for Pittsfield, MA

Change the Weather History Date:

Wednesday, September 11, 2013

  Actual Average Record
Temperature  
Mean Temperature 77 °F 60 °F  
Max Temperature 90 °F 71 °F 90 °F (1931)
Min Temperature 64 °F 50 °F 32 °F (1967)
Degree Days  
Heating Degree Days 0 5  
Month to date heating degree days 52 45  
Since 1 July heating degree days 108 123  
Cooling Degree Days 12 1  
Month to date cooling degree days 26 14  
Year to date cooling degree days 426 284  
Growing Degree Days 27 (Base 50)    
Moisture  
Dew Point 68 °F    
Average Humidity 76    
Maximum Humidity 100    
Minimum Humidity 52    
Precipitation  
Precipitation 0.12 in 0.13 in 2.33 in (1954)
Month to date precipitation 1.27 1.23  
Year to date precipitation 29.37 31.01  
Sea Level Pressure  
Sea Level Pressure 30.03 in    
Wind  
Wind Speed 4 mph (SW)    
Max Wind Speed 28 mph    
Max Gust Speed 37 mph    
Visibility 3 miles    
Events Fog , Rain , Thunderstorm    
T = Trace of Precipitation, MM = Missing Value Source: NWS Daily Summary

Daily Weather History Graph

Daily Weather History Graph

Search for Another Location

Airport:

Trip Planner

Search our weather history database for the weather conditions in past years. The results will help you decide how hot, cold, wet, or windy it might be!

Date:

Astronomy

Sep. 11, 2013 Rise Set
Actual Time 6:29 AM EDT 7:09 PM EDT
Civil Twilight 6:00 AM EDT 7:37 PM EDT
Nautical Twilight 5:27 AM EDT 8:11 PM EDT
Astronomical Twilight 4:52 AM EDT 8:46 PM EDT
Moon 1:02 PM EDT (9/11) 10:55 PM EDT (9/11)
Length of Visible Light 13h 37m
Length of Day
12h 40m
Waxing Crescent, 38% of the Moon is Illuminated
Sep 11
Waxing Crescent
Sep 12
First Quarter
Sep 19
Full
Sep 26
Last Quarter
Oct 4
New

Hourly Weather History & Observations

Time (EDT) Temp. Heat Index Dew Point Humidity Pressure Visibility Wind Dir Wind Speed Gust Speed Precip Events Conditions
12:54 AM 69.1 °F - 66.9 °F 93% 30.02 in 2.5 mi Calm Calm - N/A   Clear
1:06 AM 66.2 °F - 66.2 °F 100% 30.09 in 0.8 mi NNE 3.5 mph - N/A   Clear
1:17 AM 68.0 °F - 66.2 °F 94% 30.09 in 1.2 mi Calm Calm - N/A   Clear
1:54 AM 66.0 °F - 64.9 °F 96% 30.02 in 0.5 mi Calm Calm - N/A Fog Fog
2:10 AM 64.4 °F - 64.4 °F 100% 30.09 in 1.2 mi Calm Calm - N/A   Partly Cloudy
2:22 AM 66.2 °F - 66.2 °F 100% 30.09 in 1.0 mi Calm Calm - N/A   Mist
2:27 AM 66.2 °F - 64.4 °F 94% 30.09 in 0.8 mi Calm Calm - N/A   Mist
2:34 AM 66.2 °F - 64.4 °F 94% 30.09 in 0.5 mi Calm Calm - N/A Fog Fog
2:54 AM 64.9 °F - 64.9 °F 100% 30.02 in 0.2 mi Calm Calm - N/A Fog Fog
3:54 AM 64.9 °F - 64.0 °F 97% 30.02 in 0.2 mi Calm Calm - N/A Fog Fog
4:14 AM 64.4 °F - 64.4 °F 100% 30.09 in 1.0 mi Calm Calm - N/A   Overcast
4:23 AM 66.2 °F - 66.2 °F 100% 30.09 in 0.5 mi Calm Calm - N/A Fog Fog
4:30 AM 66.2 °F - 64.4 °F 94% 30.09 in 0.2 mi Calm Calm - N/A Fog Fog
4:45 AM 66.2 °F - 66.2 °F 100% 30.09 in 0.2 mi Calm Calm - N/A Fog Fog
4:54 AM 64.9 °F - 64.9 °F 100% 30.03 in 0.2 mi Calm Calm - N/A Fog Fog
5:05 AM 64.4 °F - 64.4 °F 100% 30.09 in 0.2 mi Calm Calm - N/A Fog Fog
5:54 AM 66.9 °F - 66.9 °F 100% 30.02 in 0.2 mi Calm Calm - N/A Fog Fog
6:02 AM 66.2 °F - 66.2 °F 100% 30.10 in 0.2 mi Calm Calm - N/A Fog Fog
6:54 AM 66.9 °F - 66.9 °F 100% 30.04 in 0.2 mi Calm Calm - N/A Fog Fog
7:54 AM 69.1 °F - 69.1 °F 100% 30.05 in 0.2 mi Calm Calm - N/A Fog Fog
8:54 AM 71.1 °F - 70.0 °F 96% 30.04 in 0.2 mi Calm Calm - N/A Fog Fog
9:09 AM 71.6 °F - 71.6 °F 100% 30.12 in 1.0 mi Calm Calm - N/A   Mist
9:16 AM 71.6 °F - 71.6 °F 100% 30.12 in 2.0 mi West 3.5 mph - N/A   Scattered Clouds
9:33 AM 73.4 °F - 71.6 °F 94% 30.12 in 3.0 mi Calm Calm - N/A   Clear
9:54 AM 80.1 °F 83.8 °F 72.0 °F 76% 30.03 in 5.0 mi Calm Calm - N/A   Haze
10:54 AM 84.0 °F 90.2 °F 73.0 °F 69% 30.01 in 5.0 mi SW 6.9 mph - N/A   Haze
11:54 AM 86.0 °F 93.0 °F 73.0 °F 65% 30.00 in 6.0 mi SSW 6.9 mph - N/A   Haze
12:54 PM 87.1 °F 93.6 °F 72.0 °F 61% 29.99 in 6.0 mi SW 8.1 mph - N/A   Haze
1:54 PM 88.0 °F 93.8 °F 71.1 °F 57% 29.98 in 6.0 mi SSW 9.2 mph 17.3 mph N/A   Haze
2:54 PM 90.0 °F 94.5 °F 69.1 °F 50% 29.95 in 8.0 mi SW 11.5 mph - N/A   Clear
3:54 PM 89.1 °F 94.1 °F 70.0 °F 53% 29.94 in 7.0 mi SSW 9.2 mph - N/A   Clear
4:54 PM 86.0 °F 91.5 °F 71.1 °F 61% 29.93 in 6.0 mi SW 4.6 mph - N/A   Haze
5:54 PM 84.0 °F 89.0 °F 71.1 °F 65% 29.91 in 6.0 mi South 9.2 mph - N/A   Haze
6:54 PM 82.0 °F 86.7 °F 72.0 °F 71% 29.93 in 5.0 mi SW 8.1 mph - N/A   Haze
7:42 PM 78.8 °F - 64.4 °F 61% 30.04 in 7.0 mi WNW 19.6 mph 36.8 mph 0.00 in Rain , Thunderstorm Light Rain
7:54 PM 73.9 °F - 64.9 °F 73% 29.97 in 10.0 mi West 10.4 mph 29.9 mph 0.00 in Rain , Thunderstorm Light Thunderstorms and Rain
8:54 PM 70.0 °F - 64.9 °F 84% 30.05 in 7.0 mi SW 8.1 mph - 0.02 in Rain , Thunderstorm Light Rain
9:27 PM 68.0 °F - 66.2 °F 94% 30.11 in 5.0 mi Calm Calm - 0.04 in Rain Light Rain
9:54 PM 66.9 °F - 66.0 °F 97% 29.97 in 5.0 mi Variable 4.6 mph - 0.09 in Rain Light Rain
10:54 PM 66.9 °F - 66.0 °F 97% 29.94 in 8.0 mi Calm Calm - 0.01 in Rain Light Rain
11:54 PM 66.0 °F - 64.0 °F 93% 29.93 in 7.0 mi Calm Calm - 0.00 in   Clear